Weather History for Franklin, NC

Change the Weather History Date:

Friday, September 5, 2014

  Actual Average (KTOC) Record (KTOC)
Temperature  
Mean Temperature 74 °F -  
Max Temperature 83 °F 84 °F 91 °F (2014)
Min Temperature 65 °F 63 °F 71 °F (2014)
Cooling Degree Days 9    
Growing Degree Days 24 (Base 50)    
Moisture  
Dew Point 66 °F    
Average Humidity 85    
Maximum Humidity 100    
Minimum Humidity 48    
Precipitation  
Precipitation 0.00 in - - ()
Sea Level Pressure  
Sea Level Pressure 30.23 in    
Wind  
Wind Speed 0 mph (SSE)    
Max Wind Speed 9 mph    
Max Gust Speed -    
Visibility 9 miles    
Events Rain    
Averages and records for this station are not official NWS values.
T = Trace of Precipitation, MM = Missing Value Source: NWS Daily Summary

Daily Weather History Graph

Daily Weather History Graph

Search for Another Location

Airport:

Trip Planner

Search our weather history database for the weather conditions in past years. The results will help you decide how hot, cold, wet, or windy it might be!

Date:

Astronomy

Sep. 05, 2014 Rise Set
Actual Time 7:09 AM EDT 7:54 PM EDT
Civil Twilight 6:43 AM EDT 8:20 PM EDT
Nautical Twilight 6:12 AM EDT 8:51 PM EDT
Astronomical Twilight 5:41 AM EDT 9:22 PM EDT
Moon 5:17 PM EDT (9/5) 3:08 AM EDT (9/5)
Length of Visible Light 13h 37m
Length of Day
12h 45m
Waxing Gibbous, 83% of the Moon is Illuminated
Sep 5
Waxing Gibbous
Sep 8
Full
Sep 15
Last Quarter
Sep 24
New
Oct 1
First Quarter

Hourly Weather History & Observations

Time (EDT) Temp. Heat Index Dew Point Humidity Pressure Visibility Wind Dir Wind Speed Gust Speed Precip Events Conditions
1:55 AM 66.7 °F - 66.7 °F 100% 30.24 in 7.0 mi Calm Calm - N/A   Unknown
2:15 AM 67.1 °F - 67.1 °F 100% 30.24 in 7.0 mi Calm Calm - N/A   Overcast
2:35 AM 67.1 °F - 67.1 °F 100% 30.24 in 7.0 mi Calm Calm - N/A   Unknown
2:55 AM 67.1 °F - 67.1 °F 100% 30.24 in 7.0 mi Calm Calm - N/A   Unknown
3:15 AM 66.2 °F - 66.2 °F 100% 30.24 in 7.0 mi Calm Calm - N/A   Unknown
3:35 AM 66.2 °F - 66.2 °F 100% 30.23 in 10.0 mi Calm Calm - N/A   Unknown
3:55 AM 66.2 °F - 66.2 °F 100% 30.24 in 7.0 mi Calm Calm - N/A   Unknown
4:15 AM 66.2 °F - 66.2 °F 100% 30.24 in 7.0 mi Calm Calm - N/A   Unknown
4:35 AM 66.2 °F - 66.2 °F 100% 30.24 in 10.0 mi Calm Calm - N/A   Unknown
4:55 AM 66.2 °F - 66.2 °F 100% 30.24 in 10.0 mi Calm Calm - N/A   Unknown
5:15 AM 66.2 °F - 66.2 °F 100% 30.24 in 7.0 mi Calm Calm - N/A   Unknown
5:35 AM 66.2 °F - 66.2 °F 100% 30.25 in 7.0 mi Calm Calm - N/A   Unknown
5:55 AM 66.2 °F - 66.2 °F 100% 30.24 in 5.0 mi Calm Calm - N/A   Mist
6:15 AM 66.2 °F - 66.2 °F 100% 30.25 in 10.0 mi Calm Calm - N/A   Unknown
6:35 AM 66.2 °F - 66.2 °F 100% 30.25 in 10.0 mi Calm Calm - N/A   Unknown
6:55 AM 66.2 °F - 66.2 °F 100% 30.26 in 7.0 mi Calm Calm - N/A   Unknown
7:15 AM 65.8 °F - 65.8 °F 100% 30.27 in 10.0 mi Calm Calm - N/A   Unknown
7:35 AM 65.7 °F - 65.7 °F 100% 30.28 in 7.0 mi Calm Calm - N/A   Unknown
7:55 AM 65.7 °F - 65.7 °F 100% 30.29 in 5.0 mi Calm Calm - N/A   Mist
8:15 AM 65.5 °F - 65.5 °F 100% 30.30 in 5.0 mi Calm Calm - N/A   Mist
8:35 AM 66.2 °F - 66.2 °F 100% 30.30 in 10.0 mi Calm Calm - N/A   Unknown
8:55 AM 66.4 °F - 66.4 °F 100% 30.30 in 10.0 mi Calm Calm - N/A   Unknown
9:15 AM 67.3 °F - 66.4 °F 97% 30.30 in 10.0 mi Calm Calm - N/A   Unknown
9:35 AM 68.2 °F - 65.5 °F 91% 30.30 in 10.0 mi Calm Calm - N/A   Unknown
9:55 AM 68.9 °F - 64.9 °F 87% 30.31 in 10.0 mi Calm Calm - N/A   Unknown
10:15 AM 69.3 °F - 65.3 °F 87% 30.31 in 10.0 mi Calm Calm - N/A   Unknown
10:35 AM 71.6 °F - 65.3 °F 80% 30.31 in 10.0 mi Calm Calm - N/A   Unknown
10:55 AM 72.5 °F - 64.8 °F 77% 30.31 in 10.0 mi NE 3.5 mph - N/A   Unknown
11:15 AM 73.8 °F - 64.8 °F 73% 30.30 in 10.0 mi NE 3.5 mph - N/A   Unknown
11:35 AM 73.2 °F - 65.1 °F 76% 30.30 in 10.0 mi Calm Calm - N/A   Unknown
11:55 AM 73.4 °F - 65.5 °F 76% 30.29 in 10.0 mi Calm Calm - N/A   Unknown
12:15 PM 74.3 °F - 66.0 °F 75% 30.28 in 10.0 mi WNW 3.5 mph - N/A   Unknown
12:35 PM 76.1 °F - 65.3 °F 69% 30.27 in 10.0 mi Calm Calm - N/A   Unknown
12:55 PM 77.2 °F - 65.1 °F 66% 30.26 in 10.0 mi Calm Calm - N/A   Unknown
1:15 PM 77.7 °F - 64.4 °F 63% 30.25 in 10.0 mi Calm Calm - N/A   Unknown
1:35 PM 79.7 °F - 63.9 °F 58% 30.24 in 10.0 mi Calm Calm - N/A   Unknown
1:55 PM 79.5 °F - 62.4 °F 56% 30.23 in 10.0 mi Calm Calm - N/A   Unknown
2:15 PM 81.3 °F 82.7 °F 63.7 °F 55% 30.22 in 10.0 mi Calm Calm - N/A   Unknown
2:35 PM 81.0 °F 82.1 °F 62.6 °F 53% 30.21 in 10.0 mi Calm Calm - N/A   Unknown
2:55 PM 83.3 °F 84.6 °F 63.9 °F 52% 30.20 in 10.0 mi Calm Calm - N/A   Unknown
3:15 PM 82.8 °F 83.3 °F 61.2 °F 48% 30.19 in 10.0 mi Calm Calm - N/A   Unknown
3:35 PM 82.9 °F 84.0 °F 63.0 °F 51% 30.18 in 10.0 mi South 4.6 mph - N/A   Unknown
3:55 PM 79.7 °F - 64.9 °F 61% 30.18 in 10.0 mi SE 9.2 mph - N/A   Unknown
4:15 PM 77.9 °F - 63.7 °F 61% 30.18 in 10.0 mi South 4.6 mph - N/A   Unknown
4:35 PM 76.3 °F - 63.7 °F 65% 30.18 in 10.0 mi Calm Calm - N/A   Unknown
4:55 PM 77.5 °F - 64.4 °F 64% 30.18 in 10.0 mi Calm Calm - N/A   Unknown
5:15 PM 78.3 °F - 63.5 °F 60% 30.18 in 10.0 mi Calm Calm - N/A   Unknown
5:35 PM 77.9 °F - 64.2 °F 63% 30.18 in 10.0 mi Calm Calm - N/A   Unknown
6:15 PM 75.6 °F - 66.2 °F 73% 30.18 in 10.0 mi Calm Calm - N/A   Unknown
6:35 PM 76.5 °F - 67.1 °F 73% 30.18 in 10.0 mi Calm Calm - N/A Rain Light Rain
6:55 PM 75.4 °F - 66.9 °F 75% 30.18 in 10.0 mi Calm Calm - N/A   Light Drizzle
7:15 PM 73.6 °F - 67.5 °F 81% 30.18 in 10.0 mi Calm Calm - N/A   Unknown
7:35 PM 72.0 °F - 67.6 °F 86% 30.18 in 10.0 mi Calm Calm - N/A   Unknown
7:55 PM 70.9 °F - 69.1 °F 94% 30.18 in 10.0 mi Calm Calm - N/A   Unknown
8:15 PM 69.8 °F - 69.1 °F 98% 30.18 in 10.0 mi Calm Calm - N/A   Unknown
8:35 PM 69.3 °F - 68.9 °F 99% 30.18 in 10.0 mi Calm Calm - N/A   Unknown
8:55 PM 68.9 °F - 68.4 °F 98% 30.18 in 10.0 mi Calm Calm - N/A   Unknown
9:15 PM 68.0 °F - 68.0 °F 100% 30.19 in 10.0 mi Calm Calm - N/A   Unknown
9:35 PM 67.3 °F - 67.3 °F 100% 30.20 in 10.0 mi Calm Calm - N/A   Unknown
10:15 PM 67.1 °F - 67.1 °F 100% 30.20 in 10.0 mi Calm Calm - N/A   Unknown
10:35 PM 66.9 °F - 66.9 °F 100% 30.21 in 7.0 mi Calm Calm - N/A   Unknown
10:55 PM 67.1 °F - 67.1 °F 100% 30.21 in 10.0 mi SW 3.5 mph - N/A   Unknown
11:15 PM 66.7 °F - 66.7 °F 100% 30.22 in 10.0 mi Calm Calm - N/A   Unknown
11:35 PM 66.6 °F - 66.6 °F 100% 30.22 in 7.0 mi Calm Calm - N/A   Unknown